FW9406 Weather Reports


time (UTC)temp
C
wind
direction
speed
KPH
gust
KPH
rain 1hr
cm
rain 24hr
cm
rain mn
cm
humidity
%
barometer
mb
20260506114031 15 107 3.2 4.8 0.00 0.00 0.00 95 1016.9
20260506113528 15 167 3.2 4.8 0.00 0.00 0.00 95 1016.9
20260506113026 15 130 1.6 1.6 0.00 0.00 0.00 95 1016.9
20260506112522 15 105 3.2 4.8 0.00 0.00 0.00 95 1016.9
20260506112019 15 91 1.6 3.2 0.00 0.00 0.00 95 1016.9
20260506111518 15 122 3.2 4.8 0.00 0.00 0.00 95 1016.6
20260506111014 15 148 0.0 4.8 0.00 0.00 0.00 95 1016.9
20260506110512 15 131 0.0 3.2 0.00 0.00 0.00 95 1016.6
20260506110009 15 110 3.2 6.4 0.00 0.00 0.00 95 1016.6
20260506105505 15 141 1.6 4.8 0.00 0.00 0.00 96 1016.2
20260506105002 15 139 1.6 3.2 0.00 0.00 0.00 96 1016.2
20260506104500 15 179 1.6 3.2 0.00 0.00 0.00 96 1015.9
20260506103958 15 162 3.2 4.8 0.00 0.00 0.00 96 1015.9
20260506103455 15 202 0.0 4.8 0.00 0.00 0.00 96 1015.9
20260506102952 15 229 0.0 1.6 0.00 0.00 0.00 96 1015.9
20260506102450 15 159 0.0 1.6 0.00 0.00 0.00 96 1015.9
20260506101947 15 180 1.6 1.6 0.00 0.00 0.00 96 1015.9
20260506101443 15 194 0.0 1.6 0.00 0.00 0.00 96 1015.6
20260506100941 15 203 1.6 3.2 0.00 0.00 0.00 96 1015.9
20260506100439 15 207 0.0 0.0 0.00 0.00 0.00 95 1015.9
20260506095937 15 202 0.0 0.0 0.00 0.00 0.00 95 1015.9
20260506095435 15 201 0.0 0.0 0.00 0.00 0.00 95 1015.9
20260506094931 15 188 0.0 0.0 0.00 0.00 0.00 95 1015.9
20260506094430 15 173 0.0 0.0 0.00 0.00 0.00 95 1015.9
20260506093927 15 203 0.0 0.0 0.00 0.00 0.00 95 1015.9
20260506093425 15 195 0.0 0.0 0.00 0.00 0.00 95 1015.9
20260506092922 15 202 0.0 0.0 0.00 0.00 0.00 95 1016.2
20260506092420 15 208 0.0 0.0 0.00 0.00 0.00 95 1015.9
20260506091916 15 189 0.0 0.0 0.00 0.00 0.00 95 1015.9
20260506091414 15 155 0.0 0.0 0.00 0.00 0.00 95 1015.9
20260506090911 15 197 0.0 0.0 0.00 0.00 0.00 95 1015.9
20260506090409 15 197 0.0 0.0 0.00 0.00 0.00 95 1015.9
20260506085905 15 221 0.0 0.0 0.00 0.00 0.00 94 1016.2
20260506085402 15 221 0.0 0.0 0.00 0.00 0.00 94 1016.2
20260506084858 15 210 0.0 0.0 0.00 0.00 0.00 94 1016.2
20260506084355 15 208 0.0 0.0 0.00 0.00 0.00 93 1016.2
20260506083852 15 194 0.0 0.0 0.00 0.00 0.00 93 1016.6
20260506083349 15 205 0.0 0.0 0.00 0.00 0.00 93 1016.6
20260506082846 15 229 0.0 0.0 0.00 0.00 0.00 93 1016.6
20260506082343 15 212 0.0 0.0 0.00 0.00 0.00 93 1016.6
20260506081839 15 211 0.0 0.0 0.00 0.00 0.00 92 1016.6
20260506081338 15 210 0.0 0.0 0.00 0.00 0.00 92 1016.6
20260506080835 15 211 0.0 0.0 0.00 0.00 0.00 92 1016.6
20260506080331 16 194 0.0 0.0 0.00 0.00 0.00 91 1016.6
20260506073315 16 221 0.0 0.0 0.00 0.00 0.00 89 1016.2
20260506072812 16 190 0.0 1.6 0.00 0.00 0.00 89 1015.9
20260506072310 16 209 0.0 0.0 0.00 0.00 0.00 89 1015.9
20260506071807 16 208 0.0 0.0 0.00 0.00 0.00 89 1016.2
20260506071305 16 211 0.0 0.0 0.00 0.00 0.00 88 1015.9
20260506070802 16 191 0.0 0.0 0.00 0.00 0.00 88 1016.2
20260506070259 16 233 0.0 0.0 0.00 0.00 0.00 87 1015.9
20260506062236 17 121 3.2 4.8 0.00 0.00 0.00 83 1016.2
20260506061731 17 275 1.6 1.6 0.00 0.00 0.00 82 1015.6
20260506061229 17 237 0.0 0.0 0.00 0.00 0.00 83 1015.6
20260506060728 17 218 0.0 0.0 0.00 0.00 0.00 83 1015.9
20260506060224 16 216 0.0 0.0 0.00 0.00 0.00 84 1015.9
20260506051156 16 235 0.0 0.0 0.00 0.00 0.00 80 1016.6
20260506050152 17 200 0.0 0.0 0.00 0.00 0.00 79 1016.2
20260506044643 16 214 0.0 0.0 0.00 0.00 0.00 82 1016.2
20260506044139 16 202 0.0 1.6 0.00 0.00 0.00 83 1016.2
20260506043636 16 214 0.0 0.0 0.00 0.00 0.00 85 1016.2
20260506043134 16 218 0.0 0.0 0.00 0.00 0.00 86 1016.6
20260506042633 16 167 0.0 0.0 0.00 0.00 0.00 85 1016.6
20260506042131 16 215 0.0 0.0 0.00 0.00 0.00 85 1016.9
20260506041629 16 215 0.0 0.0 0.00 0.00 0.00 84 1016.6
20260506041125 16 215 0.0 0.0 0.00 0.00 0.00 84 1016.6
20260506040623 16 183 0.0 0.0 0.00 0.00 0.00 83 1016.6
20260506040120 16 230 0.0 0.0 0.00 0.00 0.00 83 1016.6
20260506035617 16 230 0.0 0.0 0.00 0.00 0.00 81 1016.6
20260506035113 16 228 0.0 0.0 0.00 0.00 0.00 80 1016.6
20260506034611 16 203 0.0 0.0 0.00 0.00 0.00 79 1016.2
20260506034108 16 203 0.0 0.0 0.00 0.00 0.00 79 1016.2
20260506033605 17 149 0.0 0.0 0.00 0.00 0.00 79 1016.6
20260506033102 16 199 0.0 0.0 0.00 0.00 0.00 80 1016.2
20260506032559 16 211 0.0 0.0 0.00 0.00 0.00 79 1016.6
20260506032056 17 203 0.0 0.0 0.00 0.00 0.00 77 1016.6
20260506031553 17 203 0.0 0.0 0.00 0.00 0.00 77 1016.2
20260506031050 17 177 0.0 0.0 0.00 0.00 0.00 76 1016.2
20260506030548 17 168 0.0 0.0 0.00 0.00 0.00 75 1016.6
20260506030045 17 182 0.0 0.0 0.00 0.00 0.00 75 1016.6
20260506025542 17 188 0.0 0.0 0.00 0.00 0.00 74 1016.6
20260506025038 17 211 0.0 0.0 0.00 0.00 0.00 74 1016.9
20260506024535 17 211 0.0 0.0 0.00 0.00 0.00 74 1016.6
20260506024031 18 211 0.0 0.0 0.00 0.00 0.00 72 1016.6
20260506023528 18 207 0.0 0.0 0.00 0.00 0.00 71 1016.6
20260506023026 18 221 0.0 0.0 0.00 0.00 0.00 70 1016.6
20260506022523 18 222 0.0 0.0 0.00 0.00 0.00 70 1016.6
20260506022020 18 218 0.0 0.0 0.00 0.00 0.00 69 1016.6
20260506021518 19 192 0.0 0.0 0.00 0.00 0.00 68 1016.2
20260506021015 19 185 0.0 0.0 0.00 0.00 0.00 67 1016.2
20260506020512 19 183 0.0 0.0 0.00 0.00 0.00 68 1016.2
20260506020010 19 203 0.0 0.0 0.00 0.00 0.00 67 1016.2
20260506015507 20 201 0.0 0.0 0.00 0.00 0.00 66 1016.6
20260506015004 20 198 0.0 0.0 0.00 0.00 0.00 66 1016.2
20260506014501 20 207 0.0 0.0 0.00 0.00 0.00 64 1016.2
20260506013957 20 198 0.0 0.0 0.00 0.00 0.00 62 1016.2
20260506013455 20 198 0.0 0.0 0.00 0.00 0.00 60 1016.2
20260506012950 21 198 0.0 0.0 0.00 0.00 0.00 58 1016.2
20260506012447 21 189 0.0 0.0 0.00 0.00 0.00 57 1016.2
20260506011944 21 185 0.0 0.0 0.00 0.00 0.00 56 1016.2
20260506011442 21 184 0.0 0.0 0.00 0.00 0.00 55 1016.6
20260506010938 22 219 0.0 0.0 0.00 0.00 0.00 54 1016.2
20260506010437 22 221 0.0 0.0 0.00 0.00 0.00 53 1016.6
20260506005933 22 203 0.0 1.6 0.00 0.00 0.00 52 1016.6
20260506005431 23 236 0.0 1.6 0.00 0.00 0.00 50 1016.6
20260506004926 23 214 3.2 4.8 0.00 0.00 0.00 49 1016.6
20260506004425 23 238 1.6 3.2 0.00 0.00 0.00 49 1016.2
20260506003920 23 183 3.2 4.8 0.00 0.00 0.00 48 1015.9
20260506003417 23 224 0.0 1.6 0.00 0.00 0.00 48 1015.9
20260506002913 23 179 0.0 3.2 0.00 0.00 0.00 47 1015.9
20260506002409 24 240 1.6 3.2 0.00 0.00 0.00 46 1015.9
20260506001905 24 236 3.2 4.8 0.00 0.00 0.00 45 1015.9
20260506001402 25 228 1.6 6.4 0.00 0.00 0.00 45 1015.9
20260506000859 25 192 0.0 4.8 0.00 0.00 0.00 44 1015.6
20260506000357 25 219 3.2 3.2 0.00 0.00 0.00 43 1015.6
20260505235853 25 250 3.2 6.4 0.00 0.00 0.00 42 1015.6
20260505235351 25 242 3.2 9.7 0.00 0.00 0.00 41 1015.6
20260505234848 25 242 3.2 6.4 0.00 0.00 0.00 41 1015.6
20260505234346 25 249 3.2 9.7 0.00 0.00 0.00 40 1015.6
20260505233842 26 249 3.2 6.4 0.00 0.00 0.00 39 1015.6
20260505233340 26 249 1.6 6.4 0.00 0.00 0.00 40 1015.6
20260505232837 26 239 8.0 9.7 0.00 0.00 0.00 39 1015.2
20260505232335 26 234 1.6 6.4 0.00 0.00 0.00 39 1015.6
20260505231831 26 245 4.8 9.7 0.00 0.00 0.00 39 1015.6
20260505231329 27 173 3.2 11.3 0.00 0.00 0.00 39 1015.2
20260505230827 27 242 3.2 9.7 0.00 0.00 0.00 40 1015.2
20260505230324 27 232 0.0 3.2 0.00 0.00 0.00 40 1015.2
20260505225821 27 245 0.0 6.4 0.00 0.00 0.00 40 1015.2
20260505225318 27 152 3.2 6.4 0.00 0.00 0.00 40 1015.2
20260505224813 27 16 3.2 11.3 0.00 0.00 0.00 39 1015.2
20260505224311 27 118 3.2 6.4 0.00 0.00 0.00 38 1015.2
20260505223808 27 220 1.6 4.8 0.00 0.00 0.00 38 1015.2
20260505223305 27 143 1.6 12.9 0.00 0.00 0.00 38 1015.2
20260505222800 27 165 1.6 11.3 0.00 0.00 0.00 38 1015.6
20260505222257 28 219 3.2 11.3 0.00 0.00 0.00 39 1015.2
20260505221754 27 107 4.8 4.8 0.00 0.00 0.00 41 1015.2
20260505221251 27 247 3.2 6.4 0.00 0.00 0.00 41 1015.6
20260505220748 27 212 4.8 11.3 0.00 0.00 0.00 42 1015.6
20260505220245 27 135 6.4 11.3 0.00 0.00 0.00 41 1015.2
20260505215743 28 156 4.8 4.8 0.00 0.00 0.00 41 1015.6
20260505215241 28 169 4.8 4.8 0.00 0.00 0.00 41 1015.2
20260505214738 28 249 1.6 9.7 0.00 0.00 0.00 40 1015.2
20260505214235 28 161 3.2 4.8 0.00 0.00 0.00 40 1015.6
20260505213733 27 240 3.2 6.4 0.00 0.00 0.00 42 1015.6
20260505213230 28 148 6.4 11.3 0.00 0.00 0.00 40 1015.6
20260505212726 27 71 1.6 9.7 0.00 0.00 0.00 42 1015.6
20260505212223 28 186 4.8 11.3 0.00 0.00 0.00 43 1015.9
20260505211720 27 157 6.4 12.9 0.00 0.00 0.00 42 1015.6
20260505211218 27 166 9.7 12.9 0.00 0.00 0.00 40 1015.6
20260505210714 28 136 4.8 9.7 0.00 0.00 0.00 40 1015.6
20260505210211 28 229 1.6 6.4 0.00 0.00 0.00 42 1015.6
20260505205708 28 228 1.6 4.8 0.00 0.00 0.00 41 1015.6
20260505205206 28 295 1.6 4.8 0.00 0.00 0.00 42 1015.6
20260505204702 28 234 3.2 14.5 0.00 0.00 0.00 42 1015.6
20260505204200 28 241 3.2 6.4 0.00 0.00 0.00 42 1015.6
20260505203657 28 239 6.4 9.7 0.00 0.00 0.00 40 1015.6
20260505203154 28 223 6.4 9.7 0.00 0.00 0.00 42 1016.2
20260505202649 27 167 4.8 11.3 0.00 0.00 0.00 42 1015.6
20260505202146 28 257 3.2 11.3 0.00 0.00 0.00 46 1015.9
20260505201643 27 253 6.4 14.5 0.00 0.00 0.00 43 1015.9
20260505201141 27 121 3.2 16.1 0.00 0.00 0.00 46 1016.2
20260505200638 27 120 11.3 17.7 0.00 0.00 0.00 43 1016.2
20260505200135 28 154 6.4 9.7 0.00 0.00 0.00 41 1016.2
20260505195631 27 188 6.4 14.5 0.00 0.00 0.00 44 1016.6
20260505195129 28 122 4.8 12.9 0.00 0.00 0.00 44 1016.6
20260505194626 27 169 6.4 12.9 0.00 0.00 0.00 45 1016.6
20260505194121 28 158 6.4 12.9 0.00 0.00 0.00 43 1016.6
20260505193618 27 201 8.0 17.7 0.00 0.00 0.00 44 1016.6
20260505193116 27 205 8.0 12.9 0.00 0.00 0.00 43 1016.6
20260505192614 27 196 8.0 16.1 0.00 0.00 0.00 44 1016.6
20260505192111 27 104 11.3 12.9 0.00 0.00 0.00 46 1016.6
20260505191610 27 174 0.0 4.8 0.00 0.00 0.00 47 1016.6
20260505191107 27 170 3.2 12.9 0.00 0.00 0.00 46 1016.9
20260505190602 28 169 4.8 11.3 0.00 0.00 0.00 44 1016.9
20260505190058 27 241 4.8 6.4 0.00 0.00 0.00 45 1016.9
20260505185555 28 60 1.6 9.7 0.00 0.00 0.00 48 1017.2
20260505185051 27 188 3.2 9.7 0.00 0.00 0.00 43 1017.2
20260505184548 27 184 4.8 11.3 0.00 0.00 0.00 44 1017.6
20260505184045 27 230 1.6 11.3 0.00 0.00 0.00 47 1017.6
20260505183541 26 187 3.2 9.7 0.00 0.00 0.00 48 1017.9
20260505183039 26 119 4.8 12.9 0.00 0.00 0.00 49 1017.6
20260505182535 26 225 6.4 12.9 0.00 0.00 0.00 47 1017.6
20260505182032 26 227 1.6 6.4 0.00 0.00 0.00 48 1017.9
20260505181528 27 114 8.0 11.3 0.00 0.00 0.00 43 1017.6
20260505181026 26 310 3.2 9.7 0.00 0.00 0.00 44 1017.9
20260505180521 27 132 6.4 12.9 0.00 0.00 0.00 45 1017.9
20260505180020 27 166 8.0 12.9 0.00 0.00 0.00 45 1017.9
20260505175514 27 249 3.2 6.4 0.00 0.00 0.00 45 1017.9
20260505175012 26 243 4.8 9.7 0.00 0.00 0.00 45 1017.9
20260505174508 27 230 6.4 9.7 0.00 0.00 0.00 46 1017.6
20260505174004 27 182 4.8 14.5 0.00 0.00 0.00 45 1017.6
20260505173500 27 196 6.4 12.9 0.00 0.00 0.00 45 1017.9
20260505172958 26 228 6.4 14.5 0.00 0.00 0.00 45 1018.3
20260505172457 26 200 3.2 16.1 0.00 0.00 0.00 46 1017.9
20260505171956 26 121 4.8 9.7 0.00 0.00 0.00 49 1018.3
20260505171453 26 169 9.7 12.9 0.00 0.00 0.00 49 1018.3
20260505170949 26 130 6.4 11.3 0.00 0.00 0.00 46 1018.3
20260505165942 26 254 6.4 9.7 0.00 0.00 0.00 48 1018.6
20260505165438 26 152 8.0 12.9 0.00 0.00 0.00 49 1018.3
20260505164933 25 205 9.7 20.9 0.00 0.00 0.00 51 1018.3
20260505164430 26 162 9.7 12.9 0.00 0.00 0.00 49 1018.3
20260505163928 26 141 3.2 12.9 0.00 0.00 0.00 52 1018.6
20260505163427 25 219 3.2 9.7 0.00 0.00 0.00 52 1018.3
20260505162926 25 146 6.4 11.3 0.00 0.00 0.00 51 1018.6
20260505162421 25 103 9.7 14.5 0.00 0.00 0.00 50 1018.6
20260505161918 25 203 0.0 4.8 0.00 0.00 0.00 51 1018.6
20260505161415 25 228 1.6 11.3 0.00 0.00 0.00 52 1018.6
20260505160912 25 249 4.8 12.9 0.00 0.00 0.00 52 1018.6
20260505160410 25 211 8.0 9.7 0.00 0.00 0.00 53 1018.6
20260505153349 23 317 3.2 9.7 0.00 0.00 0.00 59 1018.9
20260505152846 23 225 9.7 14.5 0.00 0.00 0.00 58 1018.9
20260505152344 23 215 1.6 11.3 0.00 0.00 0.00 60 1018.9
20260505151843 23 283 1.6 3.2 0.00 0.00 0.00 63 1018.9
20260505151340 22 183 6.4 11.3 0.00 0.00 0.00 63 1018.9
20260505150837 22 169 1.6 6.4 0.00 0.00 0.00 64 1018.6
20260505150335 22 98 3.2 12.9 0.00 0.00 0.00 65 1018.6
20260505140304 21 114 4.8 4.8 0.00 0.00 0.00 75 1018.6
20260505130228 17 138 4.8 6.4 0.00 0.00 0.00 86 1018.3
20260505124719 16 134 3.2 6.4 0.00 0.00 0.00 88 1018.3
20260505124215 16 190 3.2 4.8 0.00 0.00 0.00 88 1018.6
20260505123711 15 188 3.2 4.8 0.00 0.00 0.00 89 1018.3
20260505123208 15 191 3.2 4.8 0.00 0.00 0.00 91 1018.6
20260505122704 15 191 1.6 3.2 0.00 0.00 0.00 91 1018.3
20260505122202 15 146 1.6 1.6 0.00 0.00 0.00 90 1018.6
20260505121658 14 173 0.0 0.0 0.00 0.00 0.00 92 1018.3
20260505121155 13 143 1.6 1.6 0.00 0.00 0.00 94 1018.3
20260505120651 13 184 0.0 1.6 0.00 0.00 0.00 95 1018.3
20260505120147 13 149 0.0 1.6 0.00 0.00 0.00 96 1018.3
20260505115641 12 152 1.6 1.6 0.00 0.00 0.00 98 1017.9
20260505115139 12 216 0.0 0.0 0.00 0.00 0.00 99 1017.9